FW9555 Weather Reports


Display with metric or nautical units.
time (UTC)temp
F
wind
direction
speed
MPH
gust
MPH
rain 1hr
in
rain 24hr
in
rain mn
in
humidity
%
barometer
mb
20260905224440 86 270 0.0 0.0 0.00 0.00 0.00 69 1014.2
20260905223939 85 277 0.0 3.0 0.00 0.00 0.00 65 1014.1
20260905223437 85 345 0.0 2.0 0.00 0.00 0.00 66 1013.9
20260905222932 85 279 1.0 2.0 0.00 0.00 0.00 67 1014.0
20260905222432 86 334 1.0 2.0 0.00 0.00 0.00 67 1013.9
20260905221927 86 286 0.0 2.0 0.00 0.00 0.00 65 1014.1
20260905221424 87 270 0.0 0.0 0.00 0.00 0.00 67 1014.1
20260905220920 84 270 0.0 0.0 0.00 0.00 0.00 68 1014.3
20260905220416 83 328 0.0 0.0 0.00 0.00 0.00 69 1014.1
20260905215915 82 289 2.0 2.0 0.00 0.00 0.00 67 1014.1
20260905215410 83 12 0.0 3.0 0.00 0.00 0.00 67 1014.1
20260905214907 83 300 1.0 2.0 0.00 0.00 0.00 67 1014.2
20260905214402 84 319 2.0 2.0 0.00 0.00 0.00 68 1014.5
20260905213857 82 262 1.0 1.0 0.00 0.00 0.00 73 1014.5
20260905213353 81 325 1.0 3.0 0.00 0.00 0.00 72 1014.7
20260905212848 82 266 3.0 3.0 0.00 0.00 0.00 75 1014.9
20260905212342 81 0 0.0 2.0 0.00 0.00 0.00 76 1014.9
20260905211842 81 60 0.0 0.0 0.00 0.00 0.00 77 1015.0
20260905211338 81 60 0.0 0.0 0.00 0.00 0.00 77 1014.9
20260905210834 80 352 0.0 2.0 0.00 0.00 0.00 76 1014.9
20260905210333 80 12 4.0 5.0 0.00 0.00 0.00 76 1015.1
20260905205832 80 251 2.0 3.0 0.00 0.00 0.00 77 1014.8
20260905205327 80 192 0.0 3.0 0.00 0.00 0.00 78 1014.8
20260905204827 80 61 2.0 3.0 0.00 0.00 0.00 77 1015.0
20260905204323 80 32 2.0 3.0 0.00 0.00 0.00 80 1015.2
20260905203821 80 352 0.0 0.0 0.00 0.00 0.00 82 1014.9
20260905203318 79 16 2.0 2.0 0.00 0.00 0.00 81 1014.6
20260905202813 79 345 0.0 1.0 0.00 0.00 0.00 81 1015.0
20260905202308 79 340 0.0 0.0 0.00 0.00 0.00 81 1014.8
20260905201803 79 320 2.0 3.0 0.00 0.00 0.00 80 1014.8
20260905201259 79 35 0.0 0.0 0.00 0.00 0.00 80 1014.7
20260905200753 79 23 0.0 0.0 0.00 0.00 0.00 79 1015.1
20260905200249 79 23 0.0 2.0 0.00 0.00 0.00 79 1014.9
20260905195746 79 345 0.0 4.0 0.00 0.00 0.00 78 1015.3
20260905195242 80 84 0.0 2.0 0.00 0.00 0.00 77 1015.5
20260905194738 80 0 0.0 0.0 0.00 0.00 0.00 77 1015.5
20260905194236 80 311 0.0 4.0 0.00 0.00 0.00 76 1015.2
20260905193731 80 315 0.0 2.0 0.00 0.00 0.00 76 1014.8
20260905193226 80 320 0.0 0.0 0.00 0.00 0.00 76 1014.9
20260905192721 80 320 0.0 0.0 0.00 0.00 0.00 76 1014.9
20260905192218 80 320 0.0 2.0 0.00 0.00 0.00 74 1014.9
20260905191717 81 279 0.0 1.0 0.00 0.00 0.00 74 1014.9
20260905191215 82 0 1.0 1.0 0.00 0.00 0.00 73 1014.5
20260905190714 82 340 1.0 2.0 0.00 0.00 0.00 73 1014.2
20260905190213 82 300 0.0 2.0 0.00 0.00 0.00 73 1014.0
20260905185712 83 325 0.0 3.0 0.00 0.00 0.00 71 1014.4
20260905185207 83 200 0.0 3.0 0.00 0.00 0.00 71 1014.3
20260905184701 84 343 5.0 5.0 0.00 0.00 0.00 68 1014.8
20260905184200 85 311 0.0 6.0 0.00 0.00 0.00 66 1015.0
20260905183654 89 355 2.0 9.0 0.00 0.00 0.00 58 1015.7
20260905183149 95 301 3.0 5.0 0.00 0.00 0.00 53 1015.0
20260905182649 95 290 4.0 4.0 0.00 0.00 0.00 56 1014.5
20260905182149 95 336 2.0 3.0 0.00 0.00 0.00 54 1014.4
20260905181644 95 337 0.0 2.0 0.00 0.00 0.00 58 1014.4
20260905181143 96 172 0.0 3.0 0.00 0.00 0.00 54 1014.7
20260905180638 96 26 2.0 2.0 0.00 0.00 0.00 51 1014.8
20260905180133 96 311 2.0 5.0 0.00 0.00 0.00 55 1014.7
20260905175632 95 258 3.0 5.0 0.00 0.00 0.00 57 1015.0
20260905175127 94 14 1.0 2.0 0.00 0.00 0.00 59 1015.2
20260905174623 94 342 2.0 4.0 0.00 0.00 0.00 60 1015.3
20260905174119 95 294 0.0 3.0 0.00 0.00 0.00 56 1015.5
20260905173615 94 15 0.0 2.0 0.00 0.00 0.00 59 1015.2
20260905173110 94 195 2.0 5.0 0.00 0.00 0.00 58 1015.7
20260905172609 95 281 5.0 7.0 0.00 0.00 0.00 60 1015.5
20260905172104 95 63 0.0 2.0 0.00 0.00 0.00 57 1015.8
20260905171600 95 339 4.0 5.0 0.00 0.00 0.00 57 1016.0
20260905171056 95 20 1.0 5.0 0.00 0.00 0.00 58 1015.8
20260905170553 95 282 0.0 5.0 0.00 0.00 0.00 62 1015.9
20260905170048 96 0 2.0 2.0 0.00 0.00 0.00 58 1016.2
20260905165543 95 0 2.0 2.0 0.00 0.00 0.00 57 1016.3
20260905165037 95 324 2.0 5.0 0.00 0.00 0.00 58 1016.1
20260905164532 95 327 0.0 3.0 0.00 0.00 0.00 57 1016.2
20260905164027 95 0 1.0 2.0 0.00 0.00 0.00 61 1016.4
20260905163523 96 294 0.0 1.0 0.00 0.00 0.00 63 1016.4
20260905163019 96 352 0.0 0.0 0.00 0.00 0.00 63 1016.4
20260905162514 95 352 0.0 0.0 0.00 0.00 0.00 64 1016.8
20260905162009 93 325 1.0 3.0 0.00 0.00 0.00 66 1016.6
20260905161509 93 285 1.0 2.0 0.00 0.00 0.00 62 1016.6
20260905161006 94 41 0.0 2.0 0.00 0.00 0.00 62 1016.8
20260905160500 94 0 0.0 2.0 0.00 0.00 0.00 72 1016.8
20260905155959 93 111 0.0 3.0 0.00 0.00 0.00 68 1016.7
20260905155455 92 60 0.0 2.0 0.00 0.00 0.00 68 1016.6
20260905154953 92 8 0.0 2.0 0.00 0.00 0.00 66 1016.9
20260905154448 92 342 2.0 4.0 0.00 0.00 0.00 68 1016.9
20260905153944 93 0 0.0 0.0 0.00 0.00 0.00 73 1016.9
20260905153440 92 192 1.0 2.0 0.00 0.00 0.00 71 1016.9
20260905152939 91 8 0.0 2.0 0.00 0.00 0.00 68 1016.9
20260905152439 90 7 3.0 3.0 0.00 0.00 0.00 71 1016.7
20260905151934 89 0 1.0 2.0 0.00 0.00 0.00 74 1017.0
20260905151430 90 23 1.0 1.0 0.00 0.00 0.00 73 1016.7
20260905150925 89 180 0.0 0.0 0.00 0.00 0.00 76 1016.9
20260905150425 87 264 0.0 2.0 0.00 0.00 0.00 77 1017.0
20260905145921 86 345 0.0 3.0 0.00 0.00 0.00 77 1017.1
20260905145416 86 32 0.0 2.0 0.00 0.00 0.00 80 1017.1
20260905144915 86 327 0.0 2.0 0.00 0.00 0.00 83 1017.0
20260905144411 85 281 3.0 3.0 0.00 0.00 0.00 85 1016.9
20260905143910 84 288 0.0 3.0 0.00 0.00 0.00 84 1016.8
20260905143404 84 270 0.0 2.0 0.00 0.00 0.00 85 1016.9
20260905142904 83 0 0.0 2.0 0.00 0.00 0.00 86 1017.1
20260905142403 84 337 0.0 2.0 0.00 0.00 0.00 87 1017.1
20260905141858 82 326 0.0 2.0 0.00 0.00 0.00 88 1017.2
20260905141353 82 303 2.0 2.0 0.00 0.00 0.00 88 1017.1
20260905140850 82 274 3.0 4.0 0.00 0.00 0.00 88 1017.2
20260905140350 81 306 0.0 3.0 0.00 0.00 0.00 89 1017.3
20260905135848 80 301 2.0 2.0 0.00 0.00 0.00 91 1017.4
20260905135344 80 188 0.0 1.0 0.00 0.00 0.00 92 1017.5
20260905134839 80 270 0.0 1.0 0.00 0.00 0.00 92 1017.3
20260905134338 79 345 1.0 3.0 0.00 0.00 0.00 92 1017.2
20260905133833 79 319 2.0 2.0 0.00 0.00 0.00 95 1017.1
20260905133328 78 270 0.0 1.0 0.00 0.00 0.00 97 1017.4
20260905132827 78 278 0.0 1.0 0.00 0.00 0.00 97 1017.3
20260905132323 78 261 0.0 0.0 0.00 0.00 0.00 98 1017.2
20260905131823 77 261 0.0 2.0 0.00 0.00 0.00 98 1017.4
20260905131318 77 286 0.0 2.0 0.00 0.00 0.00 99 1017.5
20260905130814 76 90 0.0 2.0 0.00 0.00 0.00 99 1017.6
20260905130312 76 11 0.0 2.0 0.00 0.00 0.00 99 1017.1
20260905125808 75 6 0.0 0.0 0.00 0.00 0.00 99 1017.4
20260905125305 75 8 0.0 0.0 0.00 0.00 0.00 99 1017.3
20260905124759 75 0 0.0 2.0 0.00 0.00 0.00 99 1017.5
20260905124254 75 294 0.0 2.0 0.00 0.00 0.00 99 1017.3
20260905123749 75 294 0.0 2.0 0.00 0.00 0.00 99 1017.3
20260905123247 75 304 0.0 2.0 0.00 0.00 0.00 99 1017.4
20260905122746 75 334 2.0 2.0 0.00 0.00 0.00 99 1017.5
20260905122240 74 0 0.0 0.0 0.00 0.00 0.00 99 1017.4
20260905121735 74 345 0.0 1.0 0.00 0.00 0.00 99 1017.5
20260905121232 74 300 0.0 0.0 0.00 0.00 0.00 99 1017.8
20260905120730 74 300 0.0 0.0 0.00 0.00 0.00 99 1017.4
20260905120225 74 286 0.0 1.0 0.00 0.00 0.00 99 1017.5
20260905115720 73 346 0.0 0.0 0.00 0.00 0.00 99 1017.5
20260905115220 73 270 0.0 0.0 0.00 0.00 0.00 99 1017.4
20260905114715 73 90 0.0 0.0 0.00 0.00 0.00 99 1017.3
20260905114213 72 90 0.0 0.0 0.00 0.00 0.00 99 1017.3
20260905113713 72 90 0.0 0.0 0.00 0.00 0.00 99 1017.1
20260905113209 72 90 0.0 0.0 0.00 0.00 0.00 99 1016.9
20260905112708 72 90 0.0 0.0 0.00 0.00 0.00 99 1017.1
20260905112204 72 270 0.0 0.0 0.00 0.00 0.00 99 1016.8
20260905111703 72 270 0.0 0.0 0.00 0.00 0.00 99 1016.9
20260905111203 72 270 0.0 0.0 0.00 0.00 0.00 99 1016.7
20260905110702 72 270 0.0 0.0 0.00 0.00 0.00 99 1016.6
20260905110157 72 270 0.0 0.0 0.00 0.00 0.00 99 1016.7
20260905105653 73 270 0.0 0.0 0.00 0.00 0.00 99 1016.8
20260905105151 73 270 0.0 0.0 0.00 0.00 0.00 99 1016.4
20260905104646 73 270 0.0 1.0 0.00 0.00 0.00 99 1016.5
20260905104142 73 270 0.0 0.0 0.00 0.00 0.00 99 1016.3
20260905103637 72 270 0.0 0.0 0.00 0.00 0.00 99 1016.4
20260905103133 72 270 0.0 0.0 0.00 0.00 0.00 99 1016.2
20260905102629 72 270 0.0 0.0 0.00 0.00 0.00 99 1016.1
20260905102125 73 270 0.0 0.0 0.00 0.00 0.00 99 1016.1
20260905101623 73 270 0.0 0.0 0.00 0.00 0.00 99 1016.3
20260905101122 73 0 0.0 0.0 0.00 0.00 0.00 99 1016.2
20260905100618 73 0 1.0 1.0 0.00 0.00 0.00 99 1016.3
20260905100113 73 306 0.0 0.0 0.00 0.00 0.00 99 1016.2
20260905095607 73 306 0.0 0.0 0.00 0.00 0.00 99 1016.1
20260905095102 73 306 0.0 0.0 0.00 0.00 0.00 99 1016.3
20260905094558 73 352 0.0 0.0 0.00 0.00 0.00 99 1016.3
20260905094057 73 353 0.0 1.0 0.00 0.00 0.00 99 1016.1
20260905093556 73 0 0.0 0.0 0.00 0.00 0.00 99 1016.4
20260905093053 73 0 0.0 0.0 0.00 0.00 0.00 99 1016.0
20260905092553 73 0 0.0 0.0 0.00 0.00 0.00 99 1016.2
20260905092049 73 0 0.0 0.0 0.00 0.00 0.00 99 1016.4
20260905091548 73 0 0.0 0.0 0.00 0.00 0.00 99 1016.0
20260905091043 73 0 0.0 0.0 0.00 0.00 0.00 99 1016.4
20260905090542 73 0 0.0 0.0 0.00 0.00 0.00 99 1016.2
20260905090038 73 0 0.0 0.0 0.00 0.00 0.00 99 1016.2
20260905085536 73 48 0.0 0.0 0.00 0.00 0.00 99 1016.3
20260905085032 73 48 0.0 0.0 0.00 0.00 0.00 99 1016.3
20260905084526 74 0 0.0 0.0 0.00 0.00 0.00 99 1016.2
20260905084021 74 0 0.0 0.0 0.00 0.00 0.00 99 1016.3
20260905083516 74 23 0.0 0.0 0.00 0.00 0.00 99 1016.2
20260905083013 74 0 0.0 1.0 0.00 0.00 0.00 99 1016.3
20260905082508 74 346 0.0 0.0 0.00 0.00 0.00 99 1016.3
20260905082003 74 346 0.0 0.0 0.00 0.00 0.00 99 1016.6
20260905081457 73 0 0.0 0.0 0.00 0.00 0.00 99 1016.6
20260905080957 74 0 0.0 0.0 0.00 0.00 0.00 99 1016.5
20260905080452 74 0 0.0 0.0 0.00 0.00 0.00 99 1016.6
20260905075950 74 0 0.0 0.0 0.00 0.00 0.00 99 1016.8
20260905075445 74 0 0.0 0.0 0.00 0.00 0.00 99 1016.7
20260905074944 74 0 0.0 0.0 0.00 0.00 0.00 99 1016.6
20260905074440 74 0 0.0 0.0 0.00 0.00 0.00 99 1016.7
20260905073935 74 345 0.0 0.0 0.00 0.00 0.00 99 1016.9
20260905073430 74 352 0.0 0.0 0.00 0.00 0.00 99 1017.0
20260905072926 74 352 0.0 0.0 0.00 0.00 0.00 99 1016.8
20260905072420 75 77 0.0 2.0 0.00 0.00 0.00 99 1016.8
20260905071917 75 15 0.0 1.0 0.00 0.00 0.00 99 1016.8
20260905071414 74 66 0.0 0.0 0.00 0.00 0.00 99 1016.8
20260905070912 75 66 0.0 0.0 0.00 0.00 0.00 99 1017.0
20260905070409 74 66 0.0 0.0 0.00 0.00 0.00 99 1017.0
20260905065909 75 66 0.0 0.0 0.00 0.00 0.00 99 1016.9
20260905065407 75 66 0.0 0.0 0.00 0.00 0.00 99 1017.0
20260905064902 75 66 0.0 0.0 0.00 0.00 0.00 99 1016.9
20260905064357 75 66 0.0 0.0 0.00 0.00 0.00 99 1017.2
20260905063856 75 66 0.0 0.0 0.00 0.00 0.00 99 1017.3
20260905063352 75 57 0.0 2.0 0.00 0.00 0.00 99 1017.4
20260905062848 75 289 0.0 0.0 0.00 0.00 0.00 98 1017.2
20260905062342 75 289 0.0 1.0 0.00 0.00 0.00 98 1017.5
20260905061837 75 352 0.0 0.0 0.00 0.00 0.00 98 1017.5
20260905061332 75 40 0.0 0.0 0.00 0.00 0.00 98 1017.6
20260905060826 75 40 0.0 0.0 0.00 0.00 0.00 98 1017.7
20260905060323 76 40 0.0 0.0 0.00 0.00 0.00 98 1017.6
20260905055822 75 40 0.0 0.0 0.00 0.00 0.00 98 1017.8
20260905055317 75 40 0.0 0.0 0.00 0.00 0.00 98 1017.6
20260905054816 75 40 0.0 2.0 0.00 0.00 0.00 98 1017.8
20260905054313 75 345 0.0 0.0 0.00 0.00 0.00 98 1017.7
20260905053812 76 345 0.0 0.0 0.00 0.00 0.00 98 1017.8
20260905053308 76 345 0.0 0.0 0.00 0.00 0.00 98 1017.9
20260905052807 76 345 0.0 0.0 0.00 0.00 0.00 98 1017.9
20260905052306 76 345 0.0 0.0 0.00 0.00 0.00 98 1017.9
20260905051802 76 345 0.0 0.0 0.00 0.00 0.00 98 1018.0
20260905051258 76 98 0.0 0.0 0.00 0.00 0.00 98 1018.1
20260905050754 76 98 0.0 0.0 0.00 0.00 0.00 98 1018.3
20260905050251 76 98 0.0 0.0 0.00 0.00 0.00 98 1018.2
20260905045745 76 45 0.0 2.0 0.00 0.00 0.00 97 1018.2
20260905045240 76 270 0.0 0.0 0.00 0.00 0.00 97 1017.9
20260905044736 76 270 0.0 0.0 0.00 0.00 0.00 97 1018.0
20260905044231 76 15 0.0 0.0 0.00 0.00 0.00 97 1018.1
20260905043729 76 15 0.0 0.0 0.00 0.00 0.00 97 1018.4
20260905043224 76 15 0.0 0.0 0.00 0.00 0.00 97 1018.4
20260905042719 77 15 0.0 0.0 0.00 0.00 0.00 97 1018.2
20260905042218 77 15 0.0 0.0 0.00 0.00 0.00 97 1018.0
20260905041714 77 15 0.0 1.0 0.00 0.00 0.00 96 1017.9
20260905041209 77 65 0.0 0.0 0.00 0.00 0.00 96 1017.9
20260905040704 77 325 0.0 0.0 0.00 0.00 0.00 95 1018.0
20260905040202 77 325 0.0 0.0 0.00 0.00 0.00 95 1017.9
20260905035657 77 325 0.0 0.0 0.00 0.00 0.00 95 1017.8
20260905035154 77 325 0.0 0.0 0.00 0.00 0.00 95 1017.8
20260905034649 77 325 0.0 0.0 0.00 0.00 0.00 95 1017.8
20260905034149 77 325 0.0 0.0 0.00 0.00 0.00 95 1017.9
20260905033648 78 325 0.0 0.0 0.00 0.00 0.00 94 1018.0
20260905033144 78 325 0.0 0.0 0.00 0.00 0.00 94 1017.8
20260905032644 78 325 0.0 0.0 0.00 0.00 0.00 94 1017.8
20260905032138 78 325 0.0 0.0 0.00 0.00 0.00 93 1017.6
20260905031634 78 325 0.0 0.0 0.00 0.00 0.00 93 1017.6
20260905031129 78 325 0.0 0.0 0.00 0.00 0.00 93 1017.7
20260905030624 78 325 0.0 0.0 0.00 0.00 0.00 92 1017.7
20260905030120 78 325 0.0 0.0 0.00 0.00 0.00 92 1017.6
20260905025614 78 325 0.0 0.0 0.00 0.00 0.00 92 1017.7
20260905025110 78 325 0.0 0.0 0.00 0.00 0.00 92 1018.0
20260905024606 79 325 0.0 0.0 0.00 0.00 0.00 92 1018.2
20260905024101 79 325 0.0 0.0 0.00 0.00 0.00 92 1018.1
20260905023555 79 325 0.0 0.0 0.00 0.00 0.00 91 1018.1
20260905023050 79 325 0.0 0.0 0.00 0.00 0.00 91 1018.0
20260905022549 79 325 0.0 0.0 0.00 0.00 0.00 91 1017.9
20260905022045 79 325 0.0 0.0 0.00 0.00 0.00 91 1018.0
20260905021544 79 325 0.0 0.0 0.00 0.00 0.00 90 1017.8
20260905021040 80 325 0.0 0.0 0.00 0.00 0.00 90 1017.8
20260905020539 80 325 0.0 0.0 0.00 0.00 0.00 90 1017.7
20260905020035 80 325 0.0 0.0 0.00 0.00 0.00 89 1017.7
20260905015532 80 325 0.0 2.0 0.00 0.00 0.00 90 1018.0
20260905015027 80 306 0.0 1.0 0.00 0.00 0.00 90 1017.8
20260905014522 80 279 0.0 0.0 0.00 0.00 0.00 89 1017.8
20260905014018 80 279 0.0 0.0 0.00 0.00 0.00 89 1017.6
20260905013514 80 286 0.0 0.0 0.00 0.00 0.00 89 1017.8
20260905013010 80 286 0.0 0.0 0.00 0.00 0.00 88 1017.4
20260905012504 80 286 0.0 1.0 0.00 0.00 0.00 87 1017.6
20260905012001 81 279 0.0 0.0 0.00 0.00 0.00 87 1017.7
20260905011456 81 279 0.0 0.0 0.00 0.00 0.00 87 1017.7
20260905010952 81 279 0.0 0.0 0.00 0.00 0.00 86 1017.4
20260905010452 81 279 0.0 0.0 0.00 0.00 0.00 86 1017.7
20260905005948 82 279 0.0 0.0 0.00 0.00 0.00 85 1017.5
20260905005443 82 279 0.0 0.0 0.00 0.00 0.00 84 1017.3
20260905004938 82 279 0.0 0.0 0.00 0.00 0.00 84 1017.6
20260905004433 82 279 0.0 0.0 0.00 0.00 0.00 83 1017.6
20260905003928 82 279 0.0 0.0 0.00 0.00 0.00 82 1017.6
20260905003425 83 279 0.0 0.0 0.00 0.00 0.00 82 1017.5
20260905002920 83 279 0.0 0.0 0.00 0.00 0.00 82 1017.7
20260905002419 84 279 0.0 0.0 0.00 0.00 0.00 81 1017.6
20260905001913 84 279 0.0 0.0 0.00 0.00 0.00 79 1017.7
20260905001409 84 279 0.0 0.0 0.00 0.00 0.00 79 1017.6
20260905000903 85 279 0.0 0.0 0.00 0.00 0.00 77 1017.9
20260905000359 85 279 0.0 0.0 0.00 0.00 0.00 76 1017.7
20260904235854 85 279 0.0 0.0 0.00 0.00 0.00 76 1017.6
20260904235350 86 279 0.0 0.0 0.00 0.00 0.00 75 1017.4
20260904234850 87 279 0.0 0.0 0.00 0.00 0.00 74 1017.3
20260904234344 87 279 0.0 0.0 0.00 0.00 0.00 74 1017.4
20260904233840 88 279 0.0 0.0 0.00 0.00 0.00 72 1017.4
20260904233336 89 279 0.0 0.0 0.00 0.00 0.00 70 1017.3
20260904232833 89 279 0.0 0.0 0.00 0.00 0.00 70 1017.2
20260904232329 90 279 0.0 0.0 0.00 0.00 0.00 68 1017.0
20260904231824 91 279 0.0 0.0 0.00 0.00 0.00 68 1017.1
20260904231319 91 279 0.0 0.0 0.00 0.00 0.00 65 1017.1
20260904230814 92 279 0.0 0.0 0.00 0.00 0.00 65 1017.0
20260904230312 94 279 0.0 0.0 0.00 0.00 0.00 61 1016.8
20260904225808 96 279 0.0 0.0 0.00 0.00 0.00 58 1016.9
20260904225301 97 297 0.0 0.0 0.00 0.00 0.00 54 1016.8
20260904224800 100 279 0.0 1.0 0.00 0.00 0.00 52 1016.9